Location: Arbon
(43.0005°N, 0.7472°E)
Time: 03:19:49
(UTC+00:00)

Aureole 3 - Pass Details

Date: 07 August 2020
Orbit: 381 x 1234 km, 82.5° (Epoch: 27 September)

Event Time Altitude Azimuth Distance (km) Brightness Sun altitude
Rises 04:13:58 0° 192° (SSW) 2,974 6.7 -7.4°
Reaches altitude 10° 04:15:59 10° 194° (SSW) 2,180 6.0 -7.1°
Maximum altitude 04:20:56 76° 280° (W) 871 4.2 -6.3°
Drops below altitude 10° 04:27:17 10° 6° (N) 2,781 7.4 -5.3°
Sets 04:30:09 0° 8° (N) 3,857 8.2 -4.9°
